www.pogodaiklimat.ru

Погода и климат >> Архив погоды >> Гана >> Тема


ПОГОДА в Тема

  • Прогноз погоды в Тема
  • Монитор погоды в Тема

АРХИВ ПОГОДЫ в Тема

Время (UTC), дата Ветер
(напр.,м/с)
 
Видим.   Явления Облачность Т
(С)
Тd
(С)
f
(%)
Тe
(С)
Тes
(С)
Комфортность P
(гПа)
Po
(гПа)
Тmin
(С)
Tmax
(С)
R
(мм)
R24
(мм)
S
(см)
06 12.02 З 2 14 км ясно +27.7 +26.1 91 +42 +42 опасность
перегрева
1008.8 1006.7 +27.6
09 12.02 ЮЗ 2 14 км ясно +29.7 +24.3 73 +42 +52 опасность
перегрева
1010.8 1008.7
12 12.02 ЮЗ 4 14 км 1/1 500 м
[Cu med, cong]
+31.7 +25.3 69 +46 +58 опасность
перегрева
1009.4 1007.4
15 12.02 ЮЗ 4 14 км ясно +31.6 +26.5 74 +48 +54 опасность
перегрева
1006.9 1004.9
18 12.02 ЮЗ 5 14 км 4/0 300 м
[Ci sp]
+30.0 +26.2 80 +45 +45 опасность
перегрева
1007.5 1005.5 +32.0
03 13.02 ЮЗ 3 10 км 5/5 300 м
[Sc]
+28.5 +25.7 85 +42 +42 опасность
перегрева
1009.4 1007.3
09 13.02 ЮЗ 3 16 км 8/5 480 м
[Cu med, cong Cs]
+30.0 +26.0 79 +45 +49 опасность
перегрева
1011.9 1009.8
12 13.02 ЮЗ 5 16 км 4/3 500 м
[Cu med, cong Ci sp]
+31.5 +25.8 72 +47 +55 опасность
перегрева
1010.5 1008.5
15 13.02 Ю 5 16 км ясно +31.3 +26.1 74 +47 +53 опасность
перегрева
1007.9 1005.9
21 13.02 ЮЗ 3 10 км 3/3 330 м
[Sc]
+29.1 +26.3 85 +44 +44 опасность
перегрева
1011.4 1009.3
00 14.02 ЮЗ 3 10 км 6/6 330 м
[Sc]
+28.8 +26.2 86 +44 +44 опасность
перегрева
1011.5 1009.4
03 14.02 ЮЗ 2 10 км 5/5 330 м
[Sc]
+28.6 +26.0 86 +43 +43 опасность
перегрева
1010.5 1008.4
09 14.02 ЮЗ 2 14 км 4/4 360 м
[Cu Sc]
+29.6 +25.6 79 +44 +50 опасность
перегрева
1013.0 1010.9
12 14.02 ЮЗ 3 16 км 3/3 480 м
[Cu med, cong]
+31.8 +25.4 69 +46 +58 опасность
перегрева
1011.7 1009.7
15 14.02 ЮЗ 3 17 км ясно +31.1 +26.6 77 +48 +56 опасность
перегрева
1009.6 1007.6
21 14.02 ЮЗ 3 11 км ясно +29.4 +26.2 83 +45 +45 опасность
перегрева
1012.4 1010.3
00 15.02 ЮЗ 3 10 км 4/4 300 м
[Sc]
+29.0 +26.4 86 +44 +44 опасность
перегрева
1012.9 1010.8
09 15.02 З 3 16 км 5/3 360 м
[Cu med, cong Ci sp]
+30.0 +26.0 79 +45 +51 опасность
перегрева
1014.1 1012.0
12 15.02 ЮЗ 3 6000 м мгла 8/4 500 м
[Cu med, cong Ci sp]
+32.0 +25.6 69 +47 +55 опасность
перегрева
1012.4 1010.4
15 15.02 Ю 4 10 км 5/0
[Ac trans Ci sp]
+31.3 +26.3 75 +47 +53 опасность
перегрева
1008.9 1006.9
18 15.02 ЮЗ 3 14 км 8/0
[Ac trans Ci sp]
+30.0 +26.3 81 +46 +46 опасность
перегрева
1009.8 1007.8 +33.5
06 16.02 З 2 14 км 4/4 330 м
[Sc]
+28.3 +26.3 89 +43 +43 опасность
перегрева
1010.9 1008.8 +28.1
12 16.02 Ю 4 4000 м мгла 3/3 500 м
[Cu med, cong]
+31.7 +26.0 72 +47 +57 опасность
перегрева
1011.9 1009.9
15 16.02 ЮЗ 6 4000 м мгла ясно +31.6 +26.2 73 +48 +51 опасность
перегрева
1008.2 1006.2
21 16.02 Ю 3 6000 м дымка 5/5 300 м
[Sc]
+29.6 +26.2 82 +45 +45 опасность
перегрева
1011.7 1009.6
00 17.02 Ю 3 6000 м дымка 6/3 300 м
[Sc Ac trans Ci sp]
+29.5 +26.1 82 +45 +45 опасность
перегрева
1012.3 1010.2
03 17.02 Ю 3 6000 м дымка 6/5 300 м
[Sc Ac trans]
+29.0 +26.4 86 +44 +44 опасность
перегрева
1010.2 1008.1
06 17.02 ЮЗ 3 6000 м дымка 6/3 300 м
[Sc Ac trans Ci sp]
+28.7 +25.7 84 +43 +43 опасность
перегрева
1010.6 1008.5 +28.7
09 17.02 ЮЗ 3 6000 м мгла 6/6 400 м
[Cu Sc]
+30.5 +25.6 75 +45 +48 опасность
перегрева
1012.5 1010.5
15 17.02 ЮЗ 5 6000 м мгла ясно +32.0 +25.4 68 +46 +52 опасность
перегрева
1007.9 1005.9
00 18.02 ЮЗ 3 4000 м дымка 3/3 330 м
[Sc]
+29.5 +26.3 83 +45 +45 опасность
перегрева
1011.4 1009.3
09 18.02 ЮЗ 3 14 км 5/5 360 м
[Cu Sc]
+30.5 +26.2 78 +46 +50 опасность
перегрева
1011.5 1009.5
12 18.02 ЮЗ 3 8000 м мгла 4/3 480 м
[Cu med, cong]
+32.0 +26.1 71 +48 +59 опасность
перегрева
1010.6 1008.6
18 18.02 ЮЗ 3 8000 м дымка 6/5 360 м
[Cu Sc Ci sp]
+30.5 +26.7 80 +47 +47 опасность
перегрева
1007.0 1005.0 +32.7
00 19.02 З 5 6000 м дымка 8/8 300 м
[Sc]
+29.5 +26.1 82 +45 +45 опасность
перегрева
1010.2 1008.1

 

Местоположение метеостанции Тема (Гана): широта 5.62 долгота 0.00 высота над уровнем моря 18 м.

В архиве по умолчанию представлена погода в Тема за последнюю неделю. Архивные данные за месяц целиком и за предыдущие месяцы, начиная с января 2011 года, Вы можете получить, выбрав интересующий диапазон дат из раскрывающегося списка и нажав кнопку "Ввод!".


*Определитесь, кто Вы:
робот инопланетянин человек

Внимание! Время в таблицах - всемирное. Для получения местного времени необходимо прибавить поправку, которая равна 1 ч.

Смотрите также архив погоды в соседних городах и на ближайших метеорологических станциях:

Погода в Аккра (Гана) (19 км)
Погода в Акюсе (Гана) (55 км)
Погода в Кофоридуа (Гана) (58 км)
Погода в Ада (Гана) (72 км)
Погода в Акатзи (Гана) (105 км)
Погода в Аким Ода (Гана) (114 км)
Погода в Хо (Гана) (121 км)
Погода в Солтпонде (Гана) (127 км)
Погода в Абетифи (Гана) (143 км)
Погода в Ломе (Того) (151 км)

Пояснения к столбцам:

Ветер - указаны скорость ветра в м/с - средняя за 10 мин, порывы в срок и между сроками (в фигурных скобках) и направление, откуда дует ветер: С - северный, СВ - северо-восточный, В - восточный, ЮВ - юго-восточный, Ю - южный, ЮЗ - юго-западный, З - западный, СЗ - северо-западный.
Видимость - горизонтальная дальность видимости в метрах или километрах. При видимости от 1 до 10 км при отсутствии осадков обычно наблюдается дымка, при ухудшении видимости до 1 км и менее - туман. В сухую погоду видимость может ухудшаться дымом, пылью или мглою.
Явления - указаны атмосферные явления, наблюдавшиеся в срок или в последний час перед сроком; фигурными скобками обозначены явления, наблюдавшиеся между сроками (за 1-3 часа до срока); квадратными скобками обозначены град или гололедные отложения с указанием их диаметра в мм.
Облачность - указаны через наклонную черту общая и нижняя облачность в баллах и высота нижней границы облаков в метрах; квадратными скобками обозначены формы облаков: Ci - перистые, Cs - перисто-слоистые, Cc - перисто-кучевые, Ac - высококучевые, As - высокослоистые, Sc - слоисто-кучевые, Ns - слоисто-дождевые, Cu - кучевые, Cb - кучево-дождевые. Подробнее классификацию облаков см. в Атласе облаков (PDF).
T - Температура воздуха - температура, измеренная на высоте 2 м над землей.
Td - Температура точки росы - температура, при понижении до которой содержащийся в воздухе водяной пар достигнет насыщения.
f - Относительная влажность воздуха - влажноcть воздуха, измеренная на высоте 2 м над землей.
Te - Эффективная температура - температура, которую ощущает одетый по сезону человек в тени. Характеристика душности погоды. При расчете учитывается влияние влажности воздуха и скорости ветра на теплоощущения человека.
Tes - Эффективная температура на солнце - температура, которую ощущает человек, с поправкой на солнечный нагрев. Характеристика знойности погоды. Зависит от высоты солнца над горизонтом, облачности и скорости ветра. Ночью, в пасмурную погоду, а также при ветре 12 м/с и более поправка равна нулю.
P - Атмосферное давление - приведенное к уровню моря атмосферное давление.
Po - Атмосферное давление - измеренное на уровне метеостанции атмосферное давление.
Tmin - Минимальная температура - минимум температуры воздуха на высоте 2 м над землей.
Tmax - Максимальная температура - максимум температуры воздуха на высоте 2 м над землей.
R - Количество осадков - Количество выпавших осадков за период времени, мм. При наведении курсора мыши на число - период времени, за который выпало указанное количество осадков.
R24 - Количество осадков - Количество выпавших осадков за 24 часа, мм.
S - Снежный покров - Высота снежного покрова, см. При наведении курсора мыши на число - состояние снежного покрова и степень покрытия местности в баллах.